Location: Newark
(44.5425°N, 10.7801°E)
Time: 05:54:18
(UTC+00:00)

N. Korean satellite - Pass Details

Date: 29 January 2020
Orbit: 456 x 505 km, 97.2° (Epoch: 27 February)

Event Time Altitude Azimuth Distance (km) Brightness Sun altitude
Rises 04:01:10 0° 33° (NNE) 2,557 10.7 -28.3°
Reaches altitude 10° 04:04:11 10° 61° (ENE) 1,681 10.1 -27.7°
Maximum altitude 04:05:59 13° 91° (E) 1,493 9.9 -27.4°
Drops below altitude 10° 04:07:47 10° 121° (ESE) 1,687 10.0 -27.1°
Sets 04:10:48 0° 149° (SSE) 2,573 10.6 -26.5°
